This is the latest recevied weather packets stored in our database for station/object DL1SEW-6. If no packets are shown the sender has not sent any weather packets the latest 10 day(s).
| Time | Temp. | Humidity | Pressure | Rain* | Wind** | Luminosity | Snow |
|---|---|---|---|---|---|---|---|
| 1778170201 | 13.89° C | 66% | 1014.3 hPa | 0.25 mm | - | 206 W/m² | - |
| 1778169301 | 13.89° C | 65% | 1014.3 hPa | 0.25 mm | - | 294 W/m² | - |
| 1778168402 | 13.89° C | 65% | 1014.3 hPa | 0 mm | - | 290 W/m² | - |
| 1778167502 | 13.33° C | 64% | 1014.3 hPa | 0 mm | - | 245 W/m² | - |
| 1778166600 | 13.89° C | 63% | 1014.3 hPa | 0 mm | - | 217 W/m² | - |
| 1778165701 | 13.89° C | 63% | 1014.3 hPa | 0 mm | - | 219 W/m² | - |
| 1778164801 | 13.89° C | 63% | 1014.3 hPa | 0 mm | - | 309 W/m² | - |
| 1778163901 | 14.44° C | 63% | 1014.3 hPa | 0 mm | - | 244 W/m² | - |
| 1778163000 | 14.44° C | 64% | 1014.3 hPa | 0 mm | - | 586 W/m² | - |
| 1778162100 | 14.44° C | 64% | 1014.4 hPa | 0 mm | - | 561 W/m² | - |
| 1778161199 | 13.89° C | 67% | 1014.3 hPa | 0 mm | - | 469 W/m² | - |
| 1778160299 | 13.33° C | 66% | 1014.3 hPa | 0 mm | - | 386 W/m² | - |
| 1778159400 | 13.33° C | 67% | 1014.4 hPa | 0 mm | - | 360 W/m² | - |
| 1778158499 | 13.33° C | 68% | 1014.3 hPa | 0 mm | - | 281 W/m² | - |
| 1778157599 | 13.33° C | 67% | 1014.2 hPa | 0 mm | - | 276 W/m² | - |
| 1778156706 | 13.89° C | 69% | 1014.2 hPa | 0 mm | - | 473 W/m² | - |
| 1778155804 | 13.33° C | 71% | 1014.1 hPa | 0 mm | - | 545 W/m² | - |
| 1778154903 | 12.78° C | 73% | 1014 hPa | 0 mm | - | 524 W/m² | - |
| 1778154003 | 12.22° C | 73% | 1014 hPa | 0 mm | - | 433 W/m² | - |
| 1778153104 | 12.78° C | 73% | 1014.1 hPa | 0 mm | - | 277 W/m² | - |
| 1778152205 | 12.78° C | 71% | 1014.2 hPa | 0 mm | - | 273 W/m² | - |
| 1778151303 | 12.78° C | 68% | 1014.2 hPa | 0 mm | - | 396 W/m² | - |
| 1778150403 | 12.22° C | 70% | 1013.9 hPa | 0 mm | - | 479 W/m² | - |
| 1778149503 | 11.67° C | 75% | 1014 hPa | 0 mm | - | 328 W/m² | - |
| 1778148602 | 12.22° C | 76% | 1014 hPa | 0 mm | - | 259 W/m² | - |
* Rain latest hour (hover to see other rain measurements)
** Current wind speed in m/s (hover to see current wind gust speed)